Year,Month,Day,Hour,Minute,Value (Times are PST for temperature in C)
2009,08,04,08,01,16.10
2009,08,04,08,02,16.10
2009,08,04,08,03,16.10
2009,08,04,08,04,16.20
2009,08,04,08,05,16.20
2009,08,04,08,06,16.30
2009,08,04,08,07,16.30
2009,08,04,08,08,16.30
2009,08,04,08,09,16.30
2009,08,04,08,10,16.30
2009,08,04,08,11,16.30
2009,08,04,08,12,16.40
2009,08,04,08,13,16.40
2009,08,04,08,14,16.40
2009,08,04,08,15,16.40
2009,08,04,08,16,16.40
2009,08,04,08,17,16.40
2009,08,04,08,18,16.40
2009,08,04,08,19,16.30
2009,08,04,08,20,16.20
2009,08,04,08,21,16.20
2009,08,04,08,22,16.20
2009,08,04,08,23,16.20
2009,08,04,08,24,16.20
2009,08,04,08,25,16.30
2009,08,04,08,26,16.40
2009,08,04,08,27,16.50
2009,08,04,08,28,16.60
2009,08,04,08,29,16.70
2009,08,04,08,30,16.80
2009,08,04,08,31,16.90
2009,08,04,08,32,16.90
2009,08,04,08,33,17.00
2009,08,04,08,34,16.90
2009,08,04,08,35,16.90
2009,08,04,08,36,16.90
2009,08,04,08,37,16.90
2009,08,04,08,38,17.00
2009,08,04,08,39,17.00
2009,08,04,08,40,17.10
2009,08,04,08,41,17.20
2009,08,04,08,42,17.20
2009,08,04,08,43,17.20
2009,08,04,08,44,17.20
2009,08,04,08,45,17.20
2009,08,04,08,46,17.20
2009,08,04,08,47,17.20
2009,08,04,08,48,17.20
2009,08,04,08,49,17.10
2009,08,04,08,50,17.10
2009,08,04,08,51,17.00
2009,08,04,08,52,17.10
2009,08,04,08,53,17.20
2009,08,04,08,54,17.30
2009,08,04,08,55,17.40
2009,08,04,08,56,17.40
2009,08,04,08,57,17.30
2009,08,04,08,58,17.30
2009,08,04,08,59,17.30
2009,08,04,09,00,17.30
2009,08,04,09,01,17.30
2009,08,04,09,02,17.30
2009,08,04,09,03,17.30
2009,08,04,09,04,17.30
2009,08,04,09,05,17.20
2009,08,04,09,06,17.20
2009,08,04,09,07,17.30
2009,08,04,09,08,17.30
2009,08,04,09,09,17.30
2009,08,04,09,10,17.30
2009,08,04,09,11,17.30
2009,08,04,09,12,17.30
2009,08,04,09,13,17.30
2009,08,04,09,14,17.30
2009,08,04,09,15,17.40
2009,08,04,09,16,17.50
2009,08,04,09,17,17.60
2009,08,04,09,18,17.70
2009,08,04,09,19,17.70
2009,08,04,09,20,17.80
2009,08,04,09,21,17.90
2009,08,04,09,22,17.90
2009,08,04,09,23,18.00
2009,08,04,09,24,18.10
2009,08,04,09,25,18.00
2009,08,04,09,26,17.90
2009,08,04,09,27,17.90
2009,08,04,09,28,17.90
2009,08,04,09,29,17.90
2009,08,04,09,30,17.90
2009,08,04,09,31,17.90
2009,08,04,09,32,17.90
2009,08,04,09,33,17.90
2009,08,04,09,34,17.90
2009,08,04,09,35,17.80
2009,08,04,09,36,17.80
2009,08,04,09,37,17.90
2009,08,04,09,38,17.90
2009,08,04,09,39,17.90
2009,08,04,09,40,17.90
2009,08,04,09,41,17.90
2009,08,04,09,42,17.90
2009,08,04,09,43,17.80
2009,08,04,09,44,17.90
2009,08,04,09,45,17.90
2009,08,04,09,46,17.90
2009,08,04,09,47,18.10
2009,08,04,09,48,18.20
2009,08,04,09,49,18.20
2009,08,04,09,50,18.20
2009,08,04,09,51,18.20
2009,08,04,09,52,18.10
2009,08,04,09,53,18.10
2009,08,04,09,54,18.20
2009,08,04,09,55,18.10
2009,08,04,09,56,18.00
2009,08,04,09,57,17.90
2009,08,04,09,58,17.90
2009,08,04,09,59,17.90
2009,08,04,10,00,18.00
2009,08,04,10,01,18.20
2009,08,04,10,02,18.20
2009,08,04,10,03,18.20
2009,08,04,10,04,18.20
2009,08,04,10,05,18.30
2009,08,04,10,06,18.40
2009,08,04,10,07,18.60
2009,08,04,10,08,18.70
2009,08,04,10,09,18.80
2009,08,04,10,10,18.80
2009,08,04,10,11,18.90
2009,08,04,10,12,18.90
2009,08,04,10,13,18.90
2009,08,04,10,14,18.90
2009,08,04,10,15,18.90
2009,08,04,10,16,18.90
2009,08,04,10,17,18.90
2009,08,04,10,18,18.90
2009,08,04,10,19,18.70
2009,08,04,10,20,18.80
2009,08,04,10,21,18.90
2009,08,04,10,22,18.80
2009,08,04,10,23,18.60
2009,08,04,10,24,18.60
2009,08,04,10,25,18.60
2009,08,04,10,26,18.50
2009,08,04,10,27,18.50
2009,08,04,10,28,18.50
2009,08,04,10,29,18.50
2009,08,04,10,30,18.40
2009,08,04,10,31,18.50
2009,08,04,10,32,18.50
2009,08,04,10,33,18.50
2009,08,04,10,34,18.40
2009,08,04,10,35,18.30
2009,08,04,10,36,18.50
2009,08,04,10,37,18.50
2009,08,04,10,38,18.60
2009,08,04,10,39,18.70
2009,08,04,10,40,18.80
2009,08,04,10,41,19.00
2009,08,04,10,42,19.10
2009,08,04,10,43,19.10
2009,08,04,10,44,19.00
2009,08,04,10,45,18.90
2009,08,04,10,46,18.90
2009,08,04,10,47,18.90
2009,08,04,10,48,18.80
2009,08,04,10,49,18.80
2009,08,04,10,50,18.90
2009,08,04,10,51,19.00
2009,08,04,10,52,19.10
2009,08,04,10,53,19.10
2009,08,04,10,54,19.10
2009,08,04,10,55,19.10
2009,08,04,10,56,19.10
2009,08,04,10,57,19.10
2009,08,04,10,58,18.80
2009,08,04,10,59,18.70
2009,08,04,11,00,18.70
2009,08,04,11,01,18.90
2009,08,04,11,02,18.80
2009,08,04,11,03,18.70
2009,08,04,11,04,18.90
2009,08,04,11,05,18.90
2009,08,04,11,06,18.90
2009,08,04,11,07,18.80
2009,08,04,11,08,18.90
2009,08,04,11,09,19.00
2009,08,04,11,10,18.90
2009,08,04,11,11,18.90
2009,08,04,11,12,18.70
2009,08,04,11,13,18.70
2009,08,04,11,14,18.80
2009,08,04,11,15,18.70
2009,08,04,11,16,18.60
2009,08,04,11,17,18.50
2009,08,04,11,18,18.50
2009,08,04,11,19,18.60
2009,08,04,11,20,18.50
2009,08,04,11,21,18.60
2009,08,04,11,22,18.60
2009,08,04,11,23,18.60
2009,08,04,11,24,18.50
2009,08,04,11,25,18.50
2009,08,04,11,26,18.50
2009,08,04,11,27,18.60
2009,08,04,11,28,18.60
2009,08,04,11,29,18.70
2009,08,04,11,30,18.90
2009,08,04,11,31,18.90
2009,08,04,11,32,18.90
2009,08,04,11,33,18.90
2009,08,04,11,34,19.00
2009,08,04,11,35,19.10
2009,08,04,11,36,19.20
2009,08,04,11,37,19.30
2009,08,04,11,38,19.30
2009,08,04,11,39,19.30
2009,08,04,11,40,19.20
2009,08,04,11,41,19.00
2009,08,04,11,42,18.90
2009,08,04,11,43,18.90
2009,08,04,11,44,18.90
2009,08,04,11,45,18.90
2009,08,04,11,46,18.70
2009,08,04,11,47,18.70
2009,08,04,11,48,18.70
2009,08,04,11,49,18.70
2009,08,04,11,50,18.90
2009,08,04,11,51,19.00
2009,08,04,11,52,19.10
2009,08,04,11,53,19.20
2009,08,04,11,54,19.30
2009,08,04,11,55,19.40
2009,08,04,11,56,19.30
2009,08,04,11,57,19.20
2009,08,04,11,58,19.10
2009,08,04,11,59,19.10
2009,08,04,12,00,18.90
2009,08,04,12,01,18.70
2009,08,04,12,02,18.70
2009,08,04,12,03,18.70
2009,08,04,12,04,18.80
2009,08,04,12,05,18.90
2009,08,04,12,06,18.90
2009,08,04,12,07,18.90
2009,08,04,12,08,19.00
2009,08,04,12,09,19.10
2009,08,04,12,10,19.10
2009,08,04,12,11,19.10
2009,08,04,12,12,19.10
2009,08,04,12,13,19.30
2009,08,04,12,14,19.20
2009,08,04,12,15,19.10
2009,08,04,12,16,19.10
2009,08,04,12,17,19.00
2009,08,04,12,18,18.70
2009,08,04,12,19,18.40
2009,08,04,12,20,18.20
2009,08,04,12,21,17.90
2009,08,04,12,22,17.70
2009,08,04,12,23,17.70
2009,08,04,12,24,17.70
2009,08,04,12,25,17.90
2009,08,04,12,26,18.00
2009,08,04,12,27,18.10
2009,08,04,12,28,18.20
2009,08,04,12,29,18.10
2009,08,04,12,30,18.10
2009,08,04,12,31,18.10
2009,08,04,12,32,18.20
2009,08,04,12,33,18.20
2009,08,04,12,34,18.20
2009,08,04,12,35,18.20
2009,08,04,12,36,17.80
2009,08,04,12,37,17.70
2009,08,04,12,38,17.70
2009,08,04,12,39,17.40
2009,08,04,12,40,17.10
2009,08,04,12,41,16.90
2009,08,04,12,42,17.00
2009,08,04,12,43,17.10
2009,08,04,12,44,17.20
2009,08,04,12,45,17.30
2009,08,04,12,46,17.50
2009,08,04,12,47,17.70
2009,08,04,12,48,17.80
2009,08,04,12,49,17.90
2009,08,04,12,50,17.70
2009,08,04,12,51,17.50
2009,08,04,12,52,17.30
2009,08,04,12,53,17.20
2009,08,04,12,54,17.10
2009,08,04,12,55,17.10
2009,08,04,12,56,17.20
2009,08,04,12,57,17.20
2009,08,04,12,58,17.20
2009,08,04,12,59,17.20
2009,08,04,13,00,17.10
2009,08,04,13,01,17.10
2009,08,04,13,02,17.10
2009,08,04,13,03,17.10
2009,08,04,13,04,17.10
2009,08,04,13,05,17.20
2009,08,04,13,06,17.20
2009,08,04,13,07,17.20
2009,08,04,13,08,17.30
2009,08,04,13,09,17.40
2009,08,04,13,10,17.50
2009,08,04,13,11,17.50
2009,08,04,13,12,17.50
2009,08,04,13,13,17.50
2009,08,04,13,14,17.40
2009,08,04,13,15,17.50
2009,08,04,13,16,17.60
2009,08,04,13,17,17.70
2009,08,04,13,18,17.70
2009,08,04,13,19,17.60
2009,08,04,13,20,17.60
2009,08,04,13,21,17.70
2009,08,04,13,22,17.70
2009,08,04,13,23,17.60
2009,08,04,13,24,17.70
2009,08,04,13,25,17.60
2009,08,04,13,26,17.50
2009,08,04,13,27,17.40
2009,08,04,13,28,17.40
2009,08,04,13,29,17.20
2009,08,04,13,30,16.90
2009,08,04,13,31,16.70
2009,08,04,13,32,16.60
2009,08,04,13,33,16.50
2009,08,04,13,34,16.50
2009,08,04,13,35,16.70
2009,08,04,13,36,16.80
2009,08,04,13,37,16.90
2009,08,04,13,38,17.10
2009,08,04,13,39,17.20
2009,08,04,13,40,17.40
2009,08,04,13,41,17.50
2009,08,04,13,42,17.50
2009,08,04,13,43,17.40
2009,08,04,13,44,17.30
2009,08,04,13,45,17.30
2009,08,04,13,46,17.30
2009,08,04,13,47,17.40
2009,08,04,13,48,17.60
2009,08,04,13,49,17.60
2009,08,04,13,50,17.70
2009,08,04,13,51,17.90
2009,08,04,13,52,18.00
2009,08,04,13,53,18.10
2009,08,04,13,54,18.20
2009,08,04,13,55,18.20
2009,08,04,13,56,18.20
2009,08,04,13,57,18.20
2009,08,04,13,58,18.30
2009,08,04,13,59,18.40
2009,08,04,14,00,18.30
2009,08,04,14,01,18.30
2009,08,04,14,02,18.30
2009,08,04,14,03,18.30
2009,08,04,14,04,18.30
2009,08,04,14,05,18.20
2009,08,04,14,06,18.20
2009,08,04,14,07,18.20
2009,08,04,14,08,18.20
2009,08,04,14,09,18.10
2009,08,04,14,10,18.20
2009,08,04,14,11,18.10
2009,08,04,14,12,18.20
2009,08,04,14,13,18.30
2009,08,04,14,14,18.50
2009,08,04,14,15,18.70
2009,08,04,14,16,18.70
2009,08,04,14,17,18.80
2009,08,04,14,18,19.00
2009,08,04,14,19,19.10
2009,08,04,14,20,19.10
2009,08,04,14,21,19.20
2009,08,04,14,22,19.40
2009,08,04,14,23,19.70
2009,08,04,14,24,19.90
2009,08,04,14,25,20.20
2009,08,04,14,26,20.40
2009,08,04,14,27,20.60
2009,08,04,14,28,20.80
2009,08,04,14,29,20.90
2009,08,04,14,30,20.80
2009,08,04,14,31,20.60
2009,08,04,14,32,20.40
2009,08,04,14,33,20.30
2009,08,04,14,34,20.30
2009,08,04,14,35,20.50
2009,08,04,14,36,20.60
2009,08,04,14,37,20.70
2009,08,04,14,38,20.70
2009,08,04,14,39,20.80
2009,08,04,14,40,20.90
2009,08,04,14,41,21.10
2009,08,04,14,42,21.30
2009,08,04,14,43,21.30
2009,08,04,14,44,21.40
2009,08,04,14,45,21.50
2009,08,04,14,46,21.40
2009,08,04,14,47,21.20
2009,08,04,14,48,21.00
2009,08,04,14,49,20.70
2009,08,04,14,50,20.30
2009,08,04,14,51,20.10
2009,08,04,14,52,20.00
2009,08,04,14,53,19.90
2009,08,04,14,54,19.90
2009,08,04,14,55,20.10
2009,08,04,14,56,20.20
2009,08,04,14,57,20.30
2009,08,04,14,58,20.50
2009,08,04,14,59,20.50
2009,08,04,15,00,20.40
2009,08,04,15,01,20.50
2009,08,04,15,02,20.70
2009,08,04,15,03,20.90
2009,08,04,15,04,21.00
2009,08,04,15,05,20.80
2009,08,04,15,06,20.70
2009,08,04,15,07,20.60
2009,08,04,15,08,20.50
2009,08,04,15,09,20.50
2009,08,04,15,10,20.40
2009,08,04,15,11,20.40
2009,08,04,15,12,20.20
2009,08,04,15,13,19.90
2009,08,04,15,14,19.80
2009,08,04,15,15,19.80
2009,08,04,15,16,19.80
2009,08,04,15,17,19.90
2009,08,04,15,18,20.00
2009,08,04,15,19,20.20
2009,08,04,15,20,20.40
2009,08,04,15,21,20.70
2009,08,04,15,22,20.70
2009,08,04,15,23,20.80
2009,08,04,15,24,20.80
2009,08,04,15,25,20.90
2009,08,04,15,26,20.90
2009,08,04,15,27,20.90
2009,08,04,15,28,21.00
2009,08,04,15,29,21.10
2009,08,04,15,30,21.10
2009,08,04,15,31,21.00
2009,08,04,15,32,21.00
2009,08,04,15,33,20.90
2009,08,04,15,34,20.80
2009,08,04,15,35,20.60
2009,08,04,15,36,20.50
2009,08,04,15,37,20.30
2009,08,04,15,38,20.30
2009,08,04,15,39,20.20
2009,08,04,15,40,20.20
2009,08,04,15,41,20.20
2009,08,04,15,42,20.20
2009,08,04,15,43,20.20
2009,08,04,15,44,20.10
2009,08,04,15,45,20.00
2009,08,04,15,46,19.90
2009,08,04,15,47,19.90
2009,08,04,15,48,19.80
2009,08,04,15,49,19.70
2009,08,04,15,50,19.60
2009,08,04,15,51,19.60
2009,08,04,15,52,19.70
2009,08,04,15,53,19.80
2009,08,04,15,54,19.90
2009,08,04,15,55,20.10
2009,08,04,15,56,20.20
2009,08,04,15,57,20.20
2009,08,04,15,58,20.20
2009,08,04,15,59,20.20
2009,08,04,16,00,20.20
2009,08,04,16,01,20.20
2009,08,04,16,02,20.20
2009,08,04,16,03,20.40
2009,08,04,16,04,20.40
2009,08,04,16,05,20.50
2009,08,04,16,06,20.60
2009,08,04,16,07,20.70
2009,08,04,16,08,20.70
2009,08,04,16,09,20.60
2009,08,04,16,10,20.60
2009,08,04,16,11,20.50
2009,08,04,16,12,20.60
2009,08,04,16,13,20.70
2009,08,04,16,14,20.70
2009,08,04,16,15,20.80
2009,08,04,16,16,20.90
2009,08,04,16,17,20.90
2009,08,04,16,18,21.00
2009,08,04,16,19,20.80
2009,08,04,16,20,20.70
2009,08,04,16,21,20.60
2009,08,04,16,22,20.50
2009,08,04,16,23,20.50
2009,08,04,16,24,20.60
2009,08,04,16,25,20.70
2009,08,04,16,26,20.80
2009,08,04,16,27,20.80
2009,08,04,16,28,20.90
2009,08,04,16,29,21.00
2009,08,04,16,30,21.00
2009,08,04,16,31,21.20
2009,08,04,16,32,21.30
2009,08,04,16,33,21.30
2009,08,04,16,34,21.30
2009,08,04,16,35,21.40
2009,08,04,16,36,21.40
2009,08,04,16,37,21.40
2009,08,04,16,38,21.50
2009,08,04,16,39,21.60
2009,08,04,16,40,21.40
2009,08,04,16,41,21.40
2009,08,04,16,42,21.40
2009,08,04,16,43,21.40
2009,08,04,16,44,21.30
2009,08,04,16,45,21.30
2009,08,04,16,46,21.30
2009,08,04,16,47,21.30
2009,08,04,16,48,21.20
2009,08,04,16,49,21.10
2009,08,04,16,50,21.10
2009,08,04,16,51,21.10
2009,08,04,16,52,21.10
2009,08,04,16,53,21.00
2009,08,04,16,54,21.10
2009,08,04,16,55,21.10
2009,08,04,16,56,21.10
2009,08,04,16,57,21.20
2009,08,04,16,58,21.20
2009,08,04,16,59,21.20
2009,08,04,17,00,21.30
2009,08,04,17,01,21.30
2009,08,04,17,02,21.30
2009,08,04,17,03,21.30
2009,08,04,17,04,21.30
2009,08,04,17,05,21.30
2009,08,04,17,06,21.30
2009,08,04,17,07,21.30
2009,08,04,17,08,21.30
2009,08,04,17,09,21.30
2009,08,04,17,10,21.30
2009,08,04,17,11,21.40
2009,08,04,17,12,21.40
2009,08,04,17,13,21.40
2009,08,04,17,14,21.40
2009,08,04,17,15,21.60
2009,08,04,17,16,21.60
2009,08,04,17,17,21.60
2009,08,04,17,18,21.60
2009,08,04,17,19,21.60
2009,08,04,17,20,21.60
2009,08,04,17,21,21.60
2009,08,04,17,22,21.60
2009,08,04,17,23,21.60
2009,08,04,17,24,21.60
2009,08,04,17,25,21.60
2009,08,04,17,26,21.60
2009,08,04,17,27,21.60
2009,08,04,17,28,21.60
2009,08,04,17,29,21.60
2009,08,04,17,30,21.60
2009,08,04,17,31,21.60
2009,08,04,17,32,21.60
2009,08,04,17,33,21.60
2009,08,04,17,34,21.50
2009,08,04,17,35,21.50
2009,08,04,17,36,21.60
2009,08,04,17,37,21.60
2009,08,04,17,38,21.60
2009,08,04,17,39,21.60
2009,08,04,17,40,21.60
2009,08,04,17,41,21.70
2009,08,04,17,42,21.70
2009,08,04,17,43,21.70
2009,08,04,17,44,21.80
2009,08,04,17,45,21.80
2009,08,04,17,46,21.70
2009,08,04,17,47,21.80
2009,08,04,17,48,21.90
2009,08,04,17,49,22.00
2009,08,04,17,50,22.00
2009,08,04,17,51,22.10
2009,08,04,17,52,22.10
2009,08,04,17,53,22.10
2009,08,04,17,54,22.00
2009,08,04,17,55,22.00
2009,08,04,17,56,22.00
2009,08,04,17,57,22.00
2009,08,04,17,58,21.90
2009,08,04,17,59,22.00
2009,08,04,18,00,22.00
2009,08,04,18,01,22.00
2009,08,04,18,02,22.00
2009,08,04,18,03,21.90
2009,08,04,18,04,21.90
2009,08,04,18,05,21.90
2009,08,04,18,06,21.90
2009,08,04,18,07,21.80
2009,08,04,18,08,21.80
2009,08,04,18,09,21.70
2009,08,04,18,10,21.70
2009,08,04,18,11,21.60
2009,08,04,18,12,21.60
2009,08,04,18,13,21.40
2009,08,04,18,14,21.40
2009,08,04,18,15,21.40
2009,08,04,18,16,21.40
2009,08,04,18,17,21.40
2009,08,04,18,18,21.30
2009,08,04,18,19,21.30
2009,08,04,18,20,21.20
2009,08,04,18,21,21.20
2009,08,04,18,22,21.20
2009,08,04,18,23,21.10
2009,08,04,18,24,21.10
2009,08,04,18,25,21.00
2009,08,04,18,26,21.00
2009,08,04,18,27,21.00
2009,08,04,18,28,20.90
2009,08,04,18,29,20.90
2009,08,04,18,30,20.90
2009,08,04,18,31,21.00
2009,08,04,18,32,21.00
2009,08,04,18,33,21.00
2009,08,04,18,34,21.00
2009,08,04,18,35,21.00
2009,08,04,18,36,21.00
2009,08,04,18,37,21.10
2009,08,04,18,38,21.00
2009,08,04,18,39,21.00
2009,08,04,18,40,20.90
2009,08,04,18,41,20.90
2009,08,04,18,42,20.90
2009,08,04,18,43,20.90
2009,08,04,18,44,20.90
2009,08,04,18,45,20.90
2009,08,04,18,46,20.90
2009,08,04,18,47,20.90
2009,08,04,18,48,20.90
2009,08,04,18,49,20.90
2009,08,04,18,50,20.90
2009,08,04,18,51,21.00
2009,08,04,18,52,20.90
2009,08,04,18,53,20.90
2009,08,04,18,54,20.90
2009,08,04,18,55,20.90
2009,08,04,18,56,20.80
2009,08,04,18,57,20.80
2009,08,04,18,58,20.80
2009,08,04,18,59,20.80
2009,08,04,19,00,20.80
2009,08,04,19,01,20.90
2009,08,04,19,02,20.90
2009,08,04,19,03,20.90
2009,08,04,19,04,20.90
2009,08,04,19,05,20.90
2009,08,04,19,06,21.00
2009,08,04,19,07,21.00
2009,08,04,19,08,21.00
2009,08,04,19,09,21.10
2009,08,04,19,10,21.10
2009,08,04,19,11,21.00
2009,08,04,19,12,21.00
2009,08,04,19,13,21.00
2009,08,04,19,14,21.00
2009,08,04,19,15,21.00
2009,08,04,19,16,21.00
2009,08,04,19,17,21.00
2009,08,04,19,18,21.00
2009,08,04,19,19,21.00
2009,08,04,19,20,21.00
2009,08,04,19,21,21.00
